GFSNGP_2pvu_pres_237.txt.gz
Presure
462 444 425 403 369 355 342 327 356 332 341 331 323 325 323 310 300 295 280 291 293 291 292 292 284 279 272 272 271 275 277 275 276 280 258 267 295 278 280 269 311 319 304 308
452 218 449 416 394 357 348 336 326 332 338 346 327 323 325 301 303 292 299 279 299 289 289 292 291 278 278 278 268 279 281 277 282 271 260 263 282 274 267 264 286 295 138 220
453 429 419 424 411 388 361 341 332 321 338 345 338 326 334 325 302 301 290 304 292 295 297 289 293 289 277 270 274 276 274 277 276 263 264 258 275 265 263 291 294 299 294 142
422 411 412 410 403 409 399 364 337 329 315 307 345 343 326 324 317 301 300 290 309 287 291 291 289 294 283 282 276 261 273 278 273 254 262 272 273 261 261 300 296 286 290 279
423 407 419 406 410 418 422 400 375 335 326 315 309 351 336 330 334 312 304 294 289 307 293 291 289 289 290 286 285 276 260 266 267 261 260 278 271 264 253 301 280 277 277 276
417 404 405 416 411 90 393 124 401 249 350 328 319 306 335 338 336 332 315 304 296 291 300 290 294 293 291 279 274 278 272 264 262 257 257 278 271 256 253 251 285 284 276 278
394 386 385 372 369 374 364 188 383 341 404 411 348 328 296 370 346 340 336 326 312 294 292 301 308 296 292 297 290 288 262 264 262 251 251 272 266 254 254 243 309 285 276 276
382 375 370 365 363 345 352 367 358 369 381 394 406 414 344 305 385 380 345 289 330 262 304 296 301 317 300 289 293 287 262 269 263 253 255 262 264 259 258 247 240 326 274 270
369 342 343 335 340 343 342 345 348 358 369 374 378 386 404 423 321 350 393 393 291 341 314 308 303 308 311 301 282 273 277 272 264 253 268 260 259 256 248 257 244 328 279 277
329 315 315 334 325 349 327 333 331 327 330 347 357 372 379 394 410 432 323 366 399 293 356 315 298 309 299 310 309 275 307 269 262 256 256 259 257 255 253 246 246 297 282 267
325 317 325 321 310 307 326 324 327 320 315 353 328 342 353 363 219 395 413 425 349 381 286 353 315 314 305 308 310 299 284 286 260 256 267 252 251 250 253 250 237 236 287 300
325 330 325 325 338 322 312 311 310 316 313 357 325 327 338 348 357 368 377 391 417 334 377 356 347 342 313 304 313 306 295 290 277 262 266 259 255 257 251 247 245 229 234 289
323 332 335 346 347 340 335 349 329 220 338 335 105 102 292 106 349 223 356 372 389 413 338 451 389 371 350 316 306 311 301 299 275 271 268 270 253 245 249 251 247 236 228 230
338 339 358 339 333 336 335 337 339 336 161 267 108 97 105 112 249 120 293 364 383 393 406 351 448 336 390 335 313 313 306 301 291 276 273 260 264 258 249 240 248 246 237 242
365 352 334 328 330 330 330 328 327 305 333 344 358 292 135 112 124 191 334 328 370 380 390 402 424 449 316 381 313 309 320 298 297 285 276 260 269 261 245 248 243 247 248 234
340 332 335 325 313 311 311 317 321 322 324 323 322 347 356 373 385 333 140 272 344 362 376 387 409 433 431 320 375 326 306 306 294 296 285 269 253 269 259 251 248 249 243 241
343 321 310 307 310 310 316 321 324 314 316 326 337 347 352 364 372 386 343 342 347 340 360 368 384 402 429 351 337 375 314 310 266 294 292 282 269 257 241 259 256 249 246 248
309 301 294 296 308 314 312 314 318 332 354 358 367 380 396 411 380 375 387 413 341 342 346 351 370 381 397 341 339 351 370 321 313 287 300 294 282 266 255 265 254 260 253 248
301 293 300 300 302 312 308 323 335 343 344 344 359 387 395 421 402 394 401 417 429 383 343 350 351 367 90 390 339 327 342 361 344 319 320 303 297 281 271 249 249 262 257 257
295 298 288 291 311 327 327 303 322 330 342 355 361 377 396 377 363 363 386 397 418 445 364 349 347 362 371 375 344 406 144 328 345 364 324 316 309 297 283 275 258 244 267 263
288 298 280 286 312 316 290 316 317 315 327 348 355 342 336 340 356 367 358 380 400 358 335 362 417 330 394 380 374 390 409 422 376 329 348 369 326 315 306 296 280 268 253 249
286 289 292 284 279 287 309 296 293 306 305 306 325 340 352 341 356 265 263 324 287 357 356 371 360 369 351 350 279 361 367 389 398 414 432 372 347 367 326 311 302 294 283 278
277 275 287 280 283 289 281 285 283 280 306 296 305 313 334 358 110 107 117 322 132 301 329 333 340 334 338 337 364 382 360 375 348 392 408 357 353 414 360 360 350 314 306 299
273 273 282 268 274 277 275 278 280 279 277 281 287 286 290 288 107 301 141 117 198 303 315 315 327 335 335 350 371 380 374 405 376 419 436 395 407 444 437 432 432 368 359 325
284 275 272 267 272 272 267 270 272 271 269 281 280 284 255 287 286 287 288 291 218 323 299 311 310 313 170 338 333 379 405 377 364 373 373 374 379 383 391 397 397 409 355 354
275 277 274 273 266 266 268 278 276 273 269 278 276 273 269 271 273 278 285 284 282 291 298 297 290 299 315 328 310 339 322 325 339 335 334 341 349 366 363 362 364 361 360 360
287 281 275 275 274 271 267 268 268 90 89 266 216 266 269 269 266 268 267 274 273 278 273 276 278 289 293 319 314 302 308 319 322 329 332 331 330 333 333 335 333 335 342 332

GFSNGP_2pvu_pres_243.txt.gz
Presure
467 445 436 435 415 405 394 378 374 368 367 356 323 318 314 306 310 289 292 289 292 296 307 310 308 309 306 307 311 301 306 303 295 293 283 278 270 268 250 261 233 252 257 255
440 448 429 420 425 420 406 387 386 375 368 363 343 340 313 311 323 304 302 302 296 308 299 305 305 305 301 307 308 302 307 305 302 296 288 280 279 275 269 266 269 270 226 206
456 431 417 413 392 414 415 413 390 380 370 366 350 325 315 312 312 302 290 298 305 306 302 299 307 304 306 298 306 302 301 304 302 295 288 284 282 280 277 275 272 267 268 273
422 407 411 400 392 392 401 408 411 400 381 369 354 344 329 307 317 308 303 322 311 307 299 298 300 309 308 313 301 292 290 304 298 297 300 287 287 280 281 280 279 277 275 267
356 395 326 374 371 372 390 400 385 400 410 393 371 355 345 326 315 333 330 318 337 312 298 300 296 302 311 314 283 280 289 285 293 296 293 294 282 280 280 279 274 269 270 278
354 344 338 344 353 352 353 349 363 376 384 395 388 371 339 352 333 320 317 323 322 321 301 293 292 295 303 311 300 278 289 286 279 285 288 296 298 285 280 280 276 277 278 277
332 340 343 334 326 332 331 327 348 343 353 359 175 233 399 229 363 344 317 335 329 335 322 306 297 295 295 292 312 295 292 289 279 278 279 286 292 292 287 284 278 275 272 268
327 338 330 330 339 329 327 321 322 331 334 339 345 351 361 376 288 400 359 320 329 338 334 336 324 302 298 296 292 296 282 283 291 276 280 282 288 286 284 274 273 268 259 261
350 346 344 331 330 337 334 332 308 321 326 328 338 342 350 351 367 381 401 416 324 337 341 338 328 315 313 297 306 278 262 253 255 290 277 280 279 282 276 271 266 266 258 266
351 366 364 359 343 348 351 350 355 353 331 315 319 326 333 346 351 354 368 387 407 368 312 399 353 332 319 313 293 317 293 271 268 302 293 294 282 284 276 265 262 257 263 271
344 362 358 351 346 339 339 331 330 340 341 342 324 338 313 319 339 366 359 368 376 384 406 311 345 388 344 327 316 302 312 296 272 286 281 288 287 283 279 268 268 263 258 259
339 338 338 327 323 322 321 326 325 321 325 336 332 323 306 314 315 370 354 354 364 373 376 394 347 315 427 370 331 316 315 298 288 277 294 289 291 276 272 262 257 266 271 269
337 318 313 311 308 309 310 312 317 316 320 322 322 317 327 304 295 371 351 344 353 361 369 374 393 416 309 408 409 334 314 321 305 295 284 299 274 277 272 268 260 262 253 274
311 309 309 315 316 314 312 316 323 334 340 350 352 353 338 335 343 208 109 330 341 352 358 365 371 397 429 309 392 459 344 323 330 312 321 297 298 280 276 269 266 259 253 268
303 305 307 315 315 318 321 323 325 329 341 356 379 394 281 395 189 232 362 110 158 120 347 351 361 378 393 428 316 379 443 370 323 319 309 313 306 298 283 275 265 261 253 263
301 304 334 315 323 310 323 331 369 362 368 363 363 371 387 395 382 107 106 111 337 165 339 348 353 371 388 408 423 321 374 413 401 337 319 319 322 294 295 283 265 261 265 263
295 321 314 316 295 306 312 316 325 332 326 328 323 357 377 386 388 116 385 110 127 119 122 170 345 358 374 389 408 428 326 412 465 412 347 321 312 332 300 306 272 262 266 265
292 314 302 293 297 299 309 327 331 339 344 327 319 327 330 333 336 346 400 412 250 172 345 347 340 349 363 378 391 420 446 339 474 427 396 354 325 316 318 312 314 281 273 274
297 298 301 289 292 289 298 325 335 349 338 320 319 323 313 329 327 334 343 349 436 441 339 342 340 341 348 364 380 402 425 424 410 421 393 385 354 332 312 311 312 291 285 273
289 289 282 282 286 283 296 304 303 306 306 301 309 308 304 309 311 317 323 319 329 362 363 333 333 333 336 346 363 380 404 422 420 434 390 383 373 349 333 311 315 277 277 262
288 285 281 281 277 283 271 276 282 289 294 303 297 299 291 293 305 306 304 304 317 315 320 355 346 326 324 339 350 366 381 403 422 421 387 373 352 370 341 326 312 313 279 275
280 281 276 284 289 272 268 274 280 274 279 279 288 292 294 292 298 295 300 297 306 310 332 330 331 335 347 370 348 355 369 383 397 412 419 365 342 320 356 330 300 314 315 313
279 275 275 273 275 276 267 268 264 266 273 278 276 277 281 283 290 289 287 288 294 304 310 317 388 355 355 350 339 341 350 360 377 393 404 335 351 347 328 369 337 294 309 316
278 281 272 271 266 260 264 266 267 257 264 262 260 268 268 271 275 277 280 129 117 293 312 306 331 389 351 384 397 330 337 361 373 395 405 389 411 345 299 358 363 345 289 311
280 274 280 269 274 272 272 267 265 269 267 262 265 262 263 278 269 267 272 275 116 120 277 295 301 310 325 341 342 338 337 345 360 360 367 382 399 400 355 319 318 357 356 302
285 286 279 277 273 266 264 261 264 265 258 255 262 264 265 269 196 143 268 257 219 276 281 280 289 293 305 309 320 321 328 346 358 361 367 376 375 374 386 312 246 328 347 359
295 289 284 278 279 277 276 273 268 267 275 267 272 265 262 274 253 100 110 271 270 266 267 276 280 283 294 287 295 306 310 313 318 333 350 344 359 371 388 395 402 379 309 316

GFSNGP_2pvu_pres_249.txt.gz
Presure
279 383 377 363 359 368 409 425 428 406 398 392 377 359 354 346 363 363 325 319 296 306 300 324 292 314 289 279 277 278 274 263 252 249 268 291 290 289 298 286 286 283 265 272
388 372 355 343 358 363 354 385 393 409 438 407 391 399 370 352 346 364 327 313 319 297 291 290 312 316 309 278 271 263 263 280 263 249 267 265 270 286 291 298 277 294 261 276
368 362 348 328 359 357 346 346 352 353 371 397 409 439 397 396 344 347 369 316 305 296 293 289 312 313 299 310 277 270 263 270 281 273 260 262 266 305 279 284 288 301 290 264
360 345 325 353 357 351 344 335 344 332 336 357 360 380 403 430 392 345 338 363 316 301 297 290 300 314 326 290 298 282 280 277 276 280 283 275 275 278 290 289 296 306 309 297
357 341 347 354 355 364 355 335 334 334 334 332 345 354 377 385 405 402 351 340 350 323 298 300 294 305 313 332 295 305 287 281 278 276 276 287 284 276 275 281 292 291 299 302
354 330 356 356 369 376 369 352 346 337 334 325 323 331 347 370 382 394 398 366 331 320 313 292 303 292 294 325 316 312 309 313 288 281 279 281 282 290 300 312 307 288 289 292
334 350 355 351 340 341 347 345 344 349 347 346 358 332 325 336 350 371 389 131 372 358 319 317 302 298 306 306 314 324 309 306 309 302 308 287 282 282 279 281 294 296 295 301
331 371 339 324 317 316 314 318 321 328 327 329 337 354 361 351 340 337 352 372 154 368 373 313 316 301 296 301 303 310 329 305 310 303 292 296 300 290 288 295 290 299 291 308
371 346 326 314 318 324 322 319 316 318 314 318 319 330 330 335 343 340 348 351 369 384 355 391 310 311 298 305 297 311 302 316 329 306 311 296 288 286 291 294 287 293 294 301
349 331 324 320 324 325 325 328 333 329 317 318 325 322 316 328 336 345 355 336 347 360 382 405 355 345 315 311 305 295 292 307 290 319 326 304 301 294 294 295 292 296 296 294
332 318 318 340 331 320 318 326 340 381 336 326 333 348 362 368 353 336 345 349 342 337 357 375 399 395 394 318 317 304 296 289 295 302 308 320 313 304 303 299 303 300 294 294
322 311 319 314 304 310 322 329 365 355 351 357 356 366 373 377 396 405 341 340 347 345 330 378 371 393 418 428 334 326 311 305 299 292 303 303 313 312 302 306 298 310 291 290
319 305 317 306 310 312 330 336 324 319 333 331 337 346 357 382 386 410 422 340 341 331 362 379 359 366 385 408 428 404 329 323 317 315 303 302 302 308 300 300 301 305 298 295
315 306 312 304 326 329 335 342 328 307 321 317 318 325 342 343 377 388 395 364 357 352 372 373 346 353 364 378 392 413 387 334 315 340 339 320 307 306 304 301 294 297 294 296
319 311 299 298 332 355 345 317 311 309 310 304 306 307 313 320 326 200 382 388 238 357 372 383 344 341 355 365 371 379 382 392 359 357 353 342 321 307 302 302 294 291 292 260
310 301 289 301 306 308 312 309 304 302 305 299 298 299 305 311 313 325 279 103 108 152 172 385 336 341 344 348 357 364 382 392 413 340 350 358 352 310 297 307 307 296 283 275
308 294 287 288 290 314 307 295 295 292 299 297 285 278 298 300 248 108 324 337 324 414 409 118 125 333 338 341 349 368 383 385 409 427 353 430 372 329 319 300 310 308 303 280
303 290 287 281 276 285 287 287 286 294 286 287 281 282 289 290 301 313 324 333 337 333 125 154 338 333 336 235 360 372 378 383 402 416 425 349 407 377 343 328 309 307 313 292
299 288 286 276 275 286 284 281 282 283 288 284 285 277 278 297 299 308 309 330 378 344 330 238 265 302 127 332 337 347 361 375 393 424 457 459 331 355 430 351 328 309 323 301
300 298 289 278 271 271 271 270 269 263 273 275 277 274 274 281 279 289 307 301 330 393 360 326 325 300 166 309 325 334 339 359 382 410 428 435 447 310 338 453 363 355 325 315
297 291 282 279 272 270 264 265 267 265 270 267 265 265 274 275 278 285 290 294 304 317 335 369 385 380 327 461 339 336 345 352 368 390 407 420 425 437 312 337 442 419 337 304
296 288 276 284 279 273 272 275 266 266 265 273 274 269 269 269 273 276 276 284 290 295 307 324 342 366 322 325 334 338 344 353 361 375 393 401 412 420 349 314 428 429 402 344
289 288 280 276 265 275 272 272 270 272 264 264 267 267 270 267 275 268 272 281 278 281 291 294 307 321 325 325 321 325 349 346 351 366 376 387 395 403 409 313 330 418 418 390
299 293 287 279 276 266 271 266 269 276 265 267 262 264 267 277 269 275 275 268 268 279 281 282 290 297 306 316 329 350 357 333 355 354 370 376 383 389 397 338 318 406 408 410
298 296 291 284 276 277 276 271 268 266 260 273 269 272 275 268 268 271 122 277 200 114 118 255 282 287 292 304 315 316 337 352 336 346 364 376 380 384 387 391 320 387 391 397
292 298 290 289 286 280 278 280 278 277 279 280 275 276 274 273 247 268 185 195 240 119 119 122 242 278 281 289 298 310 313 323 342 351 342 351 370 378 386 392 393 375 372 374
290 294 290 287 290 291 288 284 281 289 283 283 275 276 277 274 234 280 279 153 235 240 243 297 251 299 280 286 287 286 296 312 317 328 339 359 364 356 366 375 385 397 359 358

GFSNGP_2pvu_pres_252.txt.gz
Presure
278 264 384 369 359 348 369 352 354 353 345 372 428 418 418 374 371 408 326 320 307 306 295 299 285 293 288 281 278 283 300 272 268 261 262 274 272 259 280 274 281 303 279 276
251 391 378 362 347 367 359 361 364 350 347 343 341 386 420 455 401 342 399 321 314 304 300 310 281 305 289 278 286 281 286 264 262 246 263 273 253 256 291 250 264 260 277 285
262 383 363 344 358 378 379 373 361 349 337 337 338 352 372 396 412 431 365 365 287 310 302 304 317 297 288 264 290 279 278 261 274 259 247 246 247 249 260 270 274 260 264 292
386 372 346 340 371 363 357 363 367 349 341 340 342 338 342 352 378 399 422 403 347 298 308 302 318 302 283 291 284 272 282 273 265 260 253 238 252 242 241 258 251 262 293 293
388 366 337 365 340 329 321 326 328 337 346 352 348 345 357 342 347 362 382 406 434 353 331 311 312 300 330 279 277 267 284 279 277 263 247 255 252 260 266 257 255 252 298 284
382 351 368 340 327 326 326 327 331 320 317 329 333 335 349 368 340 345 362 379 395 432 362 373 331 303 328 318 272 282 269 273 278 259 261 257 246 261 256 259 270 265 289 310
356 340 339 330 319 317 322 326 324 323 321 330 328 323 326 338 351 355 344 354 372 401 344 349 321 310 311 304 286 278 268 264 263 262 260 272 262 261 265 276 261 263 277 280
351 373 331 326 328 335 326 322 317 327 338 336 329 325 329 327 328 338 346 352 350 172 392 435 341 328 308 311 327 277 262 270 272 276 266 274 281 277 267 265 264 264 269 265
356 350 331 318 338 318 317 322 335 390 378 340 330 333 338 342 344 330 336 346 351 351 109 396 418 330 313 319 310 312 267 280 281 301 276 282 265 264 272 273 270 272 275 267
363 338 321 310 323 317 313 340 336 355 351 349 347 347 353 370 381 380 402 343 352 339 352 375 376 428 339 318 322 308 331 330 288 273 273 274 284 273 274 272 272 286 274 302
346 333 321 321 312 315 335 341 335 331 323 323 328 336 345 350 377 388 398 418 349 354 346 354 360 369 419 377 331 312 317 327 336 297 281 280 282 280 284 281 286 288 287 282
338 320 314 307 302 341 355 336 321 317 317 311 311 316 320 324 334 387 405 421 346 351 349 362 343 366 373 390 390 329 316 315 313 329 335 334 326 300 289 284 282 284 282 283
324 322 308 302 357 357 327 317 311 303 301 305 312 310 313 318 328 341 401 389 384 339 346 363 334 349 384 382 402 398 331 324 309 311 315 311 313 328 341 322 310 290 297 302
323 320 306 301 325 322 313 309 305 294 289 297 301 302 311 314 319 329 336 414 388 363 355 356 372 379 370 367 376 399 423 326 314 313 309 307 303 286 308 321 330 316 302 298
321 309 299 304 316 300 300 297 299 298 292 290 290 291 298 312 307 340 329 404 442 402 375 356 374 360 344 349 359 370 380 399 394 330 322 297 293 304 292 293 303 315 317 301
314 302 292 287 294 295 295 298 292 287 286 286 294 297 296 309 305 322 104 104 363 104 403 385 381 337 333 339 352 363 374 376 389 405 408 334 304 297 307 302 303 306 308 315
310 299 287 285 286 286 283 296 290 287 284 277 283 278 278 286 297 308 348 103 203 106 115 121 211 181 122 334 343 346 353 363 370 389 402 424 393 322 315 309 304 306 299 301
311 296 289 287 282 287 276 275 277 280 277 275 271 273 276 277 284 291 312 390 329 230 122 190 122 170 130 334 338 343 362 377 375 366 378 402 429 400 368 329 325 312 301 298
308 294 293 288 278 275 274 271 273 273 268 273 274 275 271 273 275 288 289 307 332 367 359 322 281 184 324 324 327 333 341 353 363 375 390 415 428 445 357 344 366 342 329 307
305 292 298 287 283 275 275 270 268 267 262 273 267 274 274 274 274 271 282 290 296 309 332 355 398 319 159 338 334 327 330 334 345 358 390 433 437 447 458 359 355 348 366 348
302 290 295 288 287 275 274 275 272 282 281 271 268 263 265 280 264 268 275 283 284 292 298 306 322 322 312 324 336 336 336 339 347 355 381 403 414 419 432 443 336 451 370 351
302 290 286 288 276 282 273 277 279 275 274 266 266 269 267 278 273 275 269 268 277 279 287 292 297 303 315 335 352 322 333 339 349 359 372 389 400 409 412 422 388 342 454 384
305 294 287 286 278 276 274 274 269 265 273 264 265 262 261 267 269 265 278 286 264 272 278 277 288 290 298 308 320 348 356 352 351 350 365 376 388 398 403 405 414 394 331 364
308 299 290 282 280 280 277 275 271 272 276 265 264 279 275 273 268 271 276 272 270 286 282 290 280 277 290 296 302 319 340 343 337 357 362 368 375 384 390 395 397 406 307 321
307 302 293 294 290 281 285 278 276 278 276 272 282 282 274 274 276 278 275 280 283 283 240 252 287 305 280 289 295 295 314 330 348 337 354 375 374 372 376 382 388 394 402 304
309 304 295 294 298 289 287 284 280 282 283 278 282 283 277 275 275 276 111 110 278 120 119 124 125 208 308 390 292 285 295 308 322 335 355 348 365 371 375 378 378 381 377 305
315 307 302 293 295 293 288 291 289 289 291 292 283 281 275 274 273 273 279 274 129 278 287 265 273 307 315 295 372 297 290 298 306 318 328 347 355 359 365 366 377 384 373 318

GFSNGP_2pvu_pres_255.txt.gz
Presure
260 283 254 381 387 357 376 365 353 362 390 366 359 351 342 337 381 413 441 379 365 367 337 333 308 305 292 283 297 279 292 307 301 298 317 317 347 345 334 294 294 287 259 260
282 256 276 391 365 357 354 338 331 339 331 356 364 362 348 331 344 365 401 420 351 366 342 314 313 319 297 295 288 276 278 280 279 297 298 313 324 303 304 287 282 274 268 307
270 257 397 377 352 366 344 339 332 329 331 326 327 352 366 349 332 348 370 392 396 355 337 333 310 310 294 290 287 290 292 285 284 285 280 283 296 317 293 294 280 250 244 245
249 278 386 350 370 344 332 334 332 334 332 325 324 332 335 345 354 327 349 365 394 312 339 318 310 310 296 288 288 271 284 278 284 288 274 287 291 277 265 286 267 263 258 260
259 390 358 370 345 334 329 337 328 323 324 338 335 323 330 328 340 354 329 354 370 391 341 306 317 301 306 291 292 276 287 287 275 284 274 269 273 289 278 276 258 251 244 252
284 377 364 352 344 328 333 311 317 334 346 390 385 340 330 333 337 341 356 328 348 375 397 285 325 309 309 294 278 270 283 286 265 275 262 265 276 252 279 259 277 254 274 263
394 362 351 336 331 318 321 307 327 341 372 369 356 349 341 343 343 342 339 345 335 342 366 394 338 310 321 288 275 272 276 272 264 280 271 275 269 277 257 262 263 255 265 253
381 361 341 339 322 328 310 327 330 340 331 325 330 333 334 345 359 374 381 354 350 359 351 376 389 358 320 307 279 284 278 280 262 274 272 261 259 262 269 263 256 267 268 262
374 361 344 329 326 313 331 344 344 331 328 319 318 318 320 319 335 383 384 399 393 357 339 348 362 397 360 320 299 302 289 280 268 254 263 269 262 266 263 248 263 268 257 266
363 356 331 332 319 354 380 343 324 314 310 312 311 310 315 323 332 357 392 401 413 386 358 148 205 381 395 366 319 293 288 297 283 259 274 265 275 258 278 257 253 259 255 260
356 343 337 323 319 341 328 324 312 307 301 298 303 311 312 312 323 332 366 394 416 418 353 354 348 365 377 400 410 374 315 292 290 275 255 263 263 276 253 261 261 260 269 264
348 335 327 315 324 321 314 312 306 298 297 297 296 307 315 310 328 330 332 404 390 353 350 349 354 348 365 369 404 367 317 323 289 298 285 272 273 283 265 275 258 255 258 264
349 335 319 310 322 303 304 309 293 290 295 297 296 304 306 302 327 353 338 365 414 381 337 340 347 359 334 368 382 419 351 322 295 278 273 279 284 264 281 263 263 268 270 269
346 330 311 304 317 302 296 301 289 286 283 284 284 288 291 299 318 377 363 328 446 411 376 361 353 364 334 346 365 391 419 396 348 293 277 283 275 262 272 261 252 259 279 277
337 327 312 304 291 291 304 296 288 285 284 286 280 279 284 289 296 370 329 325 393 421 408 368 359 380 367 359 362 366 381 410 407 325 323 278 287 290 275 264 263 274 261 263
333 320 305 296 288 290 286 295 293 284 283 277 275 278 281 282 279 301 347 345 326 388 401 387 374 347 336 340 348 357 365 382 398 415 429 345 311 274 274 279 285 285 298 272
330 314 308 296 288 288 277 279 274 274 271 272 278 275 277 273 284 279 294 292 103 240 118 114 124 125 133 337 339 343 349 361 370 385 405 429 397 320 325 299 333 331 275 268
330 315 304 293 285 283 274 275 279 268 270 271 276 272 275 279 272 276 287 292 169 370 325 260 124 126 122 123 207 347 357 362 356 362 374 389 407 379 344 320 325 323 325 326
329 315 303 291 286 285 278 275 276 273 268 276 270 266 266 265 269 276 279 282 294 302 310 210 118 235 126 120 237 308 332 339 353 370 381 386 380 395 424 384 321 318 315 314
325 315 307 294 290 286 286 274 276 275 284 271 268 268 269 275 273 265 265 273 277 288 291 297 303 313 332 325 336 128 333 328 333 341 353 367 381 423 456 424 445 406 330 324
325 315 304 297 294 291 282 284 277 270 281 275 265 265 268 271 266 271 284 265 281 281 278 291 289 296 306 314 338 360 327 135 339 343 347 356 371 421 425 439 428 439 437 387
325 313 303 297 291 290 280 279 270 272 272 271 273 263 262 259 268 272 274 272 278 273 277 282 277 292 294 299 309 328 380 328 362 342 350 361 381 400 415 415 423 433 446 441
325 315 310 302 291 285 287 279 275 271 271 274 279 272 266 284 277 277 278 272 284 272 287 284 289 286 286 287 296 304 329 344 332 355 348 358 371 385 401 411 405 412 425 442
330 318 309 303 296 290 280 283 277 279 278 277 279 270 281 279 273 268 277 278 278 277 289 283 293 297 306 308 288 294 302 322 352 334 356 367 364 372 384 397 400 398 409 416
343 320 313 309 301 295 290 284 281 280 280 284 280 289 286 282 277 276 278 275 277 258 251 255 289 300 308 316 379 295 295 304 317 349 340 361 369 367 372 381 388 391 394 401
356 334 317 309 305 299 292 294 287 288 286 290 289 290 290 283 277 273 277 190 202 117 120 124 165 300 304 317 343 346 283 294 304 316 339 349 352 362 368 372 377 385 377 384
368 350 330 315 306 303 297 293 297 291 286 292 296 293 288 286 153 103 104 238 209 111 117 118 124 296 306 331 351 360 320 283 294 305 315 336 349 352 358 363 368 376 377 368